Location: Oberwangen
(47.4286°N, 8.9679°E)
Time: 04:37:21
(UTC+00:00)

Cosmos 1607 - Visible Passes

Search period start: 17 October 2021 00:00
Search period end: 27 October 2021 00:00
Orbit: 915 x 987 km, 65.0° (Epoch: 16 October)

Date Brightness Start Highest point End Pass type
(mag) Time Alt. Az. Time Alt. Az. Time Alt. Az.
17 Oct 4.3 17:59:35 10° NW 18:05:49 65° WSW 18:11:55 10° SSE visible
17 Oct 6.6 19:49:47 10° W 19:51:50 12° WSW 19:53:52 10° WSW visible
18 Oct 5.2 18:17:57 10° NW 18:23:46 40° WSW 18:29:26 10° S visible
19 Oct 4.0 16:48:33 10° NW 16:54:54 72° NE 17:01:04 10° SE visible
19 Oct 6.0 18:36:38 10° WNW 18:41:33 25° WSW 18:46:24 10° SSW visible
20 Oct 4.2 17:06:44 10° NW 17:13:02 75° WSW 17:19:11 10° SSE visible
20 Oct 6.6 18:56:04 10° WNW 18:59:12 14° WSW 19:02:19 10° SW visible
21 Oct 5.0 17:25:03 10° NW 17:31:02 47° WSW 17:36:53 10° S visible
22 Oct 6.0 17:43:36 10° NW 17:48:52 29° WSW 17:54:02 10° S visible
23 Oct 6.7 18:02:42 10° WNW 18:06:34 17° WSW 18:10:23 10° SW visible
25 Oct 5.9 16:50:38 10° NW 16:56:10 34° WSW 17:01:36 10° S visible
26 Oct 6.7 17:09:30 10° WNW 17:13:55 20° WSW 17:18:16 10° SSW visible
